Location: Haut Kerinec
(48.0623°N, 4.4081°W)
Time: 02:50:16
(UTC+00:00)

SeaSat 1 - Pass Details

Date: 01 June 2020
Orbit: 745 x 747 km, 108.0° (Epoch: 05 July)

Event Time Altitude Azimuth Distance (km) Brightness Sun altitude
Rises 23:14:48 0° 30° (NNE) 3,200 6.4 -18.4°
Reaches altitude 10° 23:17:05 10° 32° (NNE) 2,272 5.5 -18.5°
Maximum altitude 23:22:02 75° 118° (ESE) 778 2.4 -18.7°
Enters shadow 23:24:20 32° 197° (SSW) 1,265 3.2 -18.8°
